Location: Sternwarte auf dem Internationalen Platz Vogelsang IP
(50.5721°N, 6.4398°E)
Time: 12:04:33
(UTC+01:00)

ACS3 Solar Sail - Pass Details

Date: 19 November 2025
Orbit: 888 x 1003 km, 97.3° (Epoch: 07 December)

Event Time Altitude Azimuth Distance (km) Brightness Sun altitude
Rises 02:43:08 0° 21° (NNE) 3,576 5.3 -48.0°
Reaches altitude 10° 02:46:01 10° 34° (NE) 2,648 4.5 -47.6°
Enters shadow 02:46:43 13° 39° (NE) 2,449 4.3 -47.5°
